Lexington Weather

Lexington, Massachusetts, USA

52°F
10/17/2021 9:33pm 
  • Lexington Conditions: Partly cloudy
  • Temperature: 52.3°F / 11.3°CColder 0.9°F than last hour.
  • Dew Point: 46.9°FDecreased 0.6°Fsince last hour.
  • Relative Humidity: 82%Increased 1.0% since last hour.
  • Wind: Calm, 10-min avg: Calm, gust: 3 mph
  • Barometer: 29.67 in Steady
  • Visibility: 10 miles
  • Rain Today: 0.35 in
  •   

Regional Weather Roundup
for Boston / Norton, MA

        
000
ASUS41 KBOX 160304
RWRBOX

REGIONAL WEATHER ROUNDUP
NATIONAL WEATHER SERVICE BOSTON/NORTON MA
1100 PM EDT FRI OCT 15 2021

NOTE:  "FAIR" INDICATES FEW OR NO CLOUDS BELOW 12,000 FEET WITH NO 
SIGNIFICANT WEATHER AND/OR OBSTRUCTIONS TO VISIBILITY.

MAZALL-160400-
EASTERN MASSACHUSETTS
  
CITY           SKY/WX    TMP DP  RH WIND       PRES   REMARKS
BOSTON         CLOUDY    65  62  90 S9        29.89F                  
BEVERLY        CLOUDY    65  62  90 S6        29.89S                  
LAWRENCE       MOCLDY    65  63  93 S5        29.90F                  
BEDFORD        MOCLDY    65  63  93 SW6       29.88F                  
BLUE HILL      NOT AVBL                                               
NORWOOD        CLOUDY    67  62  84 S7        29.89F                  
MARSHFIELD     CLOUDY    64  61  88 VRB6G12   29.91F                  
PLYMOUTH       CLOUDY    63  60  90 S7        29.92F                  
TAUNTON        CLOUDY    64  61  90 SE3       29.91F                  
NEW BEDFORD    CLOUDY    65  63  93 S6        29.91F                  
$$

MAZALL-160400-
CAPE COD AND THE ISLANDS
  
CITY           SKY/WX    TMP DP  RH WIND       PRES   REMARKS
FALMOUTH       CLOUDY    63  61  94 S9        29.94S                  
HYANNIS        CLOUDY    63  61  93 S7        29.93S                  
CHATHAM        CLOUDY    61  59  93 S7        29.95S                  
PROVINCETOWN   CLOUDY    62  61  96 S9        29.93S                  
NANTUCKET      MOCLDY    63  60  90 S8        29.94S                  
MARTHAS VNYRD  CLOUDY    63  62  97 S6        29.93F                  
$$
 
MAZALL-160400-
CENTRAL AND WESTERN MASSACHUSETTS
  
CITY           SKY/WX    TMP DP  RH WIND       PRES   REMARKS
WORCESTER      CLOUDY    64  62  93 S9        29.91F                  
FITCHBURG      CLOUDY    66  61  84 S7        29.89F                  
ORANGE         CLOUDY    64  62  93 S6        29.89F                  
SPRINGFIELD    MOCLDY    66  62  88 SE7       29.87F                  
WESTFIELD      MOCLDY    66  63  90 S7        29.87F                  
NORTH ADAMS    LGT RAIN  65  62  90 SE5       29.86F                  
PITTSFIELD     MOCLDY    62  60  93 CALM      29.87F                  
$$
 
RIZALL-160400-
RHODE ISLAND
  
CITY           SKY/WX    TMP DP  RH WIND       PRES   REMARKS
PROVIDENCE     MOCLDY    64  63  96 S5        29.92F                  
NEWPORT        CLOUDY    64  64 100 S6        29.92                   
BLOCK ISLAND   PTCLDY    65  63  93 S9        29.92F                  
SMITHFIELD     MOCLDY    64  62  93 SW3       29.91F                  
WESTERLY       CLEAR     65  64  97 CALM      29.91F                  
$$
 
CTZALL-160400-
CONNECTICUT
  
CITY           SKY/WX    TMP DP  RH WIND       PRES   REMARKS
BRADLEY INTL   MOCLDY    65  64  97 S8        29.88F                  
HARTFORD       PTCLDY    66  62  87 S3        29.88F                  
BRIDGEPORT     CLEAR     68  64  87 S3        29.89S                  
DANBURY        PTCLDY    65  59  81 CALM      29.90S                  
GROTON         CLEAR     66  65  96 S6        29.90F                  
NEW HAVEN      CLEAR     67  64  90 S5        29.89S                  
CHESTER        FAIR      63  63 100 CALM      29.91S                  
MERIDEN        PTCLDY    63  60  90 S3        29.89F                  
WILLIMANTIC    PTCLDY    65  63  93 S3        29.90F                  
OXFORD         CLEAR     62  61  96 S5        29.91S                  
$$

MEZ002-015-021-024-NHZ003-005-008-011-012-014-VTZ005-008-160400-
NORTHERN NEW ENGLAND
  
CITY           SKY/WX    TMP DP  RH WIND       PRES   REMARKS
PORTLAND ME    CLOUDY    60  59  96 SE3       29.90F                  
BANGOR ME      LGT RAIN  57  56  96 S6        29.92F FOG              
CONCORD NH     CLOUDY    62  59  90 CALM      29.88F                  
MANCHESTER NH  CLOUDY    65  60  84 CALM      29.86F                  
NASHUA NH      CLOUDY    66  66 100 CALM      29.88F                  
PORTSMOUTH NH  CLOUDY    62  61  95 CALM      29.89F FOG              
JAFFREY NH     CLOUDY    66  60  81 S5        29.90F                  
KEENE NH       LGT RAIN  64  63  96 CALM      29.88F                  
BURLINGTON VT  CLOUDY    67  62  84 S3        29.80F                  
MT. WASHINGTON FOG       50  50 100 W25         N/A  VSB 0            
$$

NYZ052-076-160400-
EASTERN NEW YORK
  
CITY           SKY/WX    TMP DP  RH WIND       PRES   REMARKS
ALBANY         HVY RAIN  67  66  97 SE7       29.82F FOG              
NEW YORK CITY  MOCLDY    72  61  68 S7        29.87S                  
$$
 
ANZALL-160400-
MARINE OBSERVATIONS
  
STATION/POSITION TIME  TEMP    WIND        PRES    VSBY  WAVE
                       AIR SEA DIR/SP/G                  HT/PER
                 (UTC) (F)     (DEG/KT/KT) (MB)    (MI)  (FT/S)
BOSTON BUOY      0240      63  200/  8/ 12 1013.0S
BUZZARDS BAY     0200          170/ 13/ 15 1014.3F
NANTUCKET SOUND  0240   64 67  190/ 10/ 12 1013.6S
MASS BAY-STELLWA 0204   63     190/ 10/ 12 1011.9R  1 7/8  2/ 4
ISLE OF SHOALS   0200   63     170/ 14/ 15 1011.7F
S OF BLOCK IS    0226      66                N/A           2/ 8
$$

......................KEY.........................
  SKY/WX - SKY CONDITION/PRESENT WEATHER
  TMP    - TEMPERATURE IN FAHRENHEIT
  DWPT   - DEWPOINT IN FAHRENHEIT
  RH     - RELATIVE HUMIDITY IN PERCENT
  WIND   - DIRECTION AND SPEED IN MPH
  PRES   - MEAN SEA LEVEL PRESSURE IN INCHES OF HG
  WCI    - WIND CHILL INDEX
  VSB    - VISIBILITY IN MILES
  HX     - HEAT INDEX
  TC     - TEMPERATURE IN CELSIUS
  VRB    - VARIABLE WIND DIRECTION
  N/A    - NOT AVAILABLE
  
      

Other recent Regional Weather Roundups

Sun Oct 17, 9:04pm

Sun Oct 17, 8:04pm

Sun Oct 17, 7:04pm

Sun Oct 17, 6:04pm

Sun Oct 17, 5:04pm

Sun Oct 17, 4:04pm

Sun Oct 17, 3:04pm

Sun Oct 17, 2:04pm

Sun Oct 17, 1:04pm

Sun Oct 17, 12:04pm

Sun Oct 17, 11:04am

Sun Oct 17, 10:04am

Sun Oct 17, 9:04am

Sun Oct 17, 8:04am

Sun Oct 17, 7:04am

Sun Oct 17, 6:04am

Sun Oct 17, 5:04am

Sun Oct 17, 4:04am

Sun Oct 17, 3:04am

Sun Oct 17, 2:04am

Sun Oct 17, 1:04am

Sun Oct 17, 12:04am

Sat Oct 16, 11:04pm

Sat Oct 16, 10:04pm

Sat Oct 16, 9:04pm

Sat Oct 16, 8:04pm

Sat Oct 16, 7:04pm

Sat Oct 16, 6:04pm

Sat Oct 16, 5:04pm

Sat Oct 16, 4:04pm

Sat Oct 16, 3:04pm

Sat Oct 16, 2:04pm

Sat Oct 16, 1:04pm

Sat Oct 16, 12:04pm

Sat Oct 16, 11:04am

Sat Oct 16, 10:04am

Sat Oct 16, 9:04am

Sat Oct 16, 8:04am

Sat Oct 16, 7:04am

Sat Oct 16, 6:04am

Sat Oct 16, 5:04am

Sat Oct 16, 4:04am

Sat Oct 16, 3:04am

Sat Oct 16, 2:04am

Sat Oct 16, 1:04am

Sat Oct 16, 12:04am

Fri Oct 15, 10:04pm

Fri Oct 15, 9:04pm

Fri Oct 15, 8:04pm

Fri Oct 15, 7:04pm

Fri Oct 15, 6:04pm

Fri Oct 15, 5:04pm

Fri Oct 15, 4:04pm

Fri Oct 15, 3:04pm

Fri Oct 15, 2:05pm

Fri Oct 15, 1:05pm

Fri Oct 15, 12:04pm

Fri Oct 15, 11:05am

Fri Oct 15, 10:04am

Fri Oct 15, 9:04am

Fri Oct 15, 8:04am

Fri Oct 15, 7:04am

Fri Oct 15, 6:04am

Fri Oct 15, 5:04am

Fri Oct 15, 4:04am

Fri Oct 15, 3:05am

Fri Oct 15, 2:04am

Fri Oct 15, 1:04am

Fri Oct 15, 12:04am

Thu Oct 14, 11:04pm

Thu Oct 14, 10:04pm

Thu Oct 14, 9:04pm

Thu Oct 14, 8:04pm

Thu Oct 14, 7:04pm

Thu Oct 14, 6:04pm

Thu Oct 14, 5:04pm

Thu Oct 14, 4:04pm

Thu Oct 14, 3:04pm

Thu Oct 14, 2:04pm

Thu Oct 14, 1:04pm

Thu Oct 14, 12:04pm

Thu Oct 14, 11:04am

Thu Oct 14, 10:04am

Thu Oct 14, 9:04am

Thu Oct 14, 8:04am

Thu Oct 14, 7:04am

Thu Oct 14, 6:04am

Thu Oct 14, 5:04am

Thu Oct 14, 4:04am

Thu Oct 14, 3:04am

Thu Oct 14, 2:04am

Thu Oct 14, 1:04am

Thu Oct 14, 12:04am

Wed Oct 13, 11:04pm

Wed Oct 13, 10:04pm

Wed Oct 13, 9:04pm

Wed Oct 13, 8:04pm

Wed Oct 13, 7:04pm

Wed Oct 13, 6:04pm

Wed Oct 13, 5:04pm

Wed Oct 13, 4:04pm

Wed Oct 13, 3:04pm

Wed Oct 13, 2:04pm

Wed Oct 13, 1:04pm

Wed Oct 13, 12:04pm

Wed Oct 13, 11:04am

Wed Oct 13, 10:04am

Wed Oct 13, 9:04am

Wed Oct 13, 8:04am

Wed Oct 13, 7:04am

Wed Oct 13, 6:04am

Wed Oct 13, 5:04am

Wed Oct 13, 4:04am

Wed Oct 13, 3:04am

Wed Oct 13, 2:04am

Wed Oct 13, 1:04am

Wed Oct 13, 12:04am

Tue Oct 12, 11:04pm

Tue Oct 12, 10:04pm

Tue Oct 12, 9:04pm

Tue Oct 12, 8:04pm

Tue Oct 12, 7:04pm

Tue Oct 12, 6:04pm

Tue Oct 12, 5:04pm

Tue Oct 12, 4:04pm

Tue Oct 12, 3:04pm

Tue Oct 12, 2:04pm

Tue Oct 12, 1:04pm

Tue Oct 12, 12:04pm

Tue Oct 12, 11:05am

Tue Oct 12, 10:04am

Tue Oct 12, 9:04am

Tue Oct 12, 8:04am

Tue Oct 12, 7:04am

Tue Oct 12, 6:04am

Tue Oct 12, 5:04am

Tue Oct 12, 4:04am

Tue Oct 12, 3:04am

Tue Oct 12, 2:04am

Tue Oct 12, 1:04am

Tue Oct 12, 12:04am

Mon Oct 11, 11:04pm

Mon Oct 11, 10:04pm

Mon Oct 11, 9:04pm

Mon Oct 11, 8:04pm

Mon Oct 11, 7:04pm

Mon Oct 11, 6:04pm

Mon Oct 11, 5:04pm

Mon Oct 11, 4:04pm

Mon Oct 11, 3:04pm

Mon Oct 11, 2:04pm

Mon Oct 11, 1:04pm

Mon Oct 11, 12:04pm

Mon Oct 11, 11:04am

Mon Oct 11, 10:04am

Mon Oct 11, 9:04am

Mon Oct 11, 8:04am

Mon Oct 11, 7:04am

Mon Oct 11, 6:04am

Mon Oct 11, 5:04am

Mon Oct 11, 4:04am

Mon Oct 11, 3:04am

Mon Oct 11, 2:04am

Mon Oct 11, 1:04am

Mon Oct 11, 12:05am

Sun Oct 10, 11:04pm

Sun Oct 10, 10:04pm

Meta data:

ID: 56248c1c-2a93-4c7b-9857-865fe95100bc
Link: https://api.weather.gov/products/56248c1c-2a93-4c7b-9857-865fe95100bc